Wind_Speed
4 7 11 14 14 18 16 17 21 18 17 17 22 18 12 11 11 13 13 13 13 15 15 23 19 22 21 19 23 22 20 19 22 22 18 15 14 12 11 11 12 12 11 12
6 12 15 15 13 15 17 18 19 18 17 17 19 20 17 12 13 14 15 15 14 12 13 15 21 23 22 22 22 22 20 21 20 19 17 12 14 11 10 10 12 12 12 11
17 20 20 11 14 16 18 18 19 18 12 16 15 19 21 13 12 12 13 12 12 13 14 15 18 21 21 22 23 23 23 22 22 19 18 13 11 9 9 11 11 11 11 10
9 10 11 12 14 15 18 18 21 16 11 13 15 12 20 18 16 15 15 14 12 11 9 10 14 17 21 21 20 21 21 23 21 21 18 17 14 11 11 10 11 10 11 11
7 18 17 12 16 14 18 15 16 19 13 17 11 10 10 8 16 17 16 16 15 13 14 12 13 14 17 18 19 19 20 22 20 20 17 15 10 8 8 8 9 10 9 10
14 12 7 9 7 7 11 10 12 3 3 7 14 12 11 10 11 11 8 12 13 11 8 8 9 12 14 15 16 18 21 19 19 19 15 12 11 9 7 6 7 8 8 7
12 6 8 6 8 4 8 10 4 5 3 4 3 7 8 4 3 1 1 8 9 6 6 6 8 11 13 15 16 18 19 18 18 16 13 11 9 8 7 7 7 7 7 6
6 6 12 11 6 5 7 10 2 3 5 6 4 6 3 4 2 1 1 5 6 5 4 5 7 10 12 14 15 16 19 17 15 14 12 9 8 6 6 6 6 5 5 5
5 5 8 6 6 5 2 2 6 6 3 3 5 5 6 1 2 2 5 7 6 4 5 6 7 10 13 14 15 18 20 17 14 13 11 9 8 7 7 7 6 5 4 4
5 4 8 12 5 2 3 11 4 6 2 3 4 1 3 3 3 5 7 7 6 6 7 8 9 12 14 15 16 16 16 16 14 13 12 11 10 9 8 6 5 4 3 3
7 3 7 6 5 7 1 4 6 1 3 4 3 6 6 7 6 6 7 7 7 9 9 10 12 15 16 16 17 18 17 17 15 13 12 11 9 8 6 5 4 3 3 3
3 3 1 5 8 6 7 6 5 3 2 2 3 3 5 6 4 5 9 8 9 10 10 11 14 16 17 17 17 17 16 15 13 12 11 9 7 6 4 4 3 3 3 4
2 1 4 3 7 2 4 2 2 2 2 2 1 3 2 7 6 6 9 10 10 11 12 11 13 14 15 15 15 15 14 13 12 10 9 8 6 4 3 3 3 3 5 7
5 3 4 6 6 3 5 3 2 4 2 1 6 8 6 7 5 8 9 10 11 11 12 11 11 12 13 13 13 13 13 11 10 9 8 6 4 3 2 3 4 6 7 7
4 6 3 9 11 7 8 7 5 5 7 5 5 4 8 8 3 9 11 12 12 12 11 11 10 11 12 13 12 12 11 10 9 8 6 4 3 1 2 4 6 7 8 9
3 4 5 4 1 2 7 8 7 8 7 9 10 12 5 3 3 8 11 12 12 11 11 11 10 12 12 12 11 11 9 8 7 5 4 3 0 2 4 6 8 9 10 11
4 5 4 3 3 7 1 4 1 2 3 5 5 4 6 3 5 4 8 10 10 11 12 11 11 12 11 11 10 8 8 6 5 4 3 1 3 5 7 8 9 10 11 13
6 6 3 4 7 1 4 2 3 4 4 5 8 4 4 3 4 5 3 6 8 10 11 10 12 12 11 10 8 7 6 5 4 1 1 2 4 6 8 9 9 11 12 14
7 5 3 3 3 2 2 3 3 4 4 6 3 2 3 4 2 5 5 2 3 8 10 12 13 13 11 9 8 7 5 3 1 1 3 4 6 7 8 9 10 11 12 15
2 6 4 2 1 2 3 1 1 2 3 3 1 3 4 3 2 3 4 6 9 13 14 15 14 12 11 8 7 5 3 1 3 3 4 6 6 7 8 9 11 11 13 14
3 3 6 4 3 1 2 2 1 1 4 2 0 2 4 1 4 7 8 10 13 15 16 14 12 10 8 6 4 2 1 3 3 3 5 5 6 8 9 10 11 12 13 15
2 3 3 2 2 1 1 1 2 2 1 1 1 2 4 6 8 9 10 11 13 15 14 11 11 8 5 3 1 1 2 2 2 3 5 6 7 8 10 11 11 12 14 16
3 2 3 4 2 2 3 5 3 1 2 0 1 2 6 10 9 10 11 11 12 13 11 9 8 6 3 2 0 2 1 2 3 4 5 7 9 10 10 11 11 13 14 15
2 1 3 3 2 2 4 4 4 5 6 2 1 4 8 10 12 12 11 10 11 11 10 7 6 3 2 1 0 1 2 2 4 5 7 8 10 11 11 11 11 12 14 15
3 3 2 6 8 3 3 2 2 4 5 4 4 5 9 11 12 13 11 11 11 10 8 6 3 2 1 1 1 1 3 3 4 5 8 10 11 10 11 10 12 12 13 15
9 10 6 5 2 3 8 5 4 6 5 8 8 9 8 12 14 14 11 13 11 9 7 4 3 1 1 1 1 3 3 3 5 7 10 10 10 10 10 12 13 11 14 16
Wind_Direction
201 256 262 283 263 269 274 263 263 242 240 215 226 221 201 189 194 189 191 190 199 199 195 178 193 198 194 205 196 197 189 185 183 172 172 176 184 182 188 188 187 186 194 196
252 260 287 287 268 254 255 254 249 259 226 219 228 223 218 191 202 196 197 199 210 209 192 190 197 200 198 193 199 194 190 191 183 180 173 179 182 191 193 188 191 195 200 204
304 281 301 269 246 243 248 251 234 245 211 224 237 228 221 217 211 212 213 209 206 210 205 206 202 201 199 200 197 193 192 187 183 178 173 160 159 163 181 194 198 204 207 213
291 292 301 278 245 245 252 244 238 242 226 212 210 222 210 211 211 213 211 206 201 201 211 200 199 199 200 201 194 191 187 181 181 177 174 174 180 184 199 198 202 208 214 222
299 300 304 272 251 250 253 255 228 242 240 238 192 232 145 186 217 217 221 218 209 198 207 209 211 202 196 193 194 184 179 178 176 176 176 171 178 171 170 182 193 206 214 222
303 306 286 306 306 252 262 236 216 237 251 225 202 226 206 190 214 204 210 200 202 188 190 199 187 178 178 178 174 172 172 172 171 168 174 174 171 168 171 172 187 198 207 217
333 344 2 337 280 187 214 230 204 207 189 208 169 203 240 143 177 211 146 187 178 163 175 160 161 166 166 167 166 165 162 160 161 164 170 172 167 173 185 196 206 202 206 209
345 341 352 353 337 319 200 216 295 288 187 130 138 206 165 32 78 10 33 141 148 155 151 149 150 158 159 159 157 154 150 146 155 163 165 165 171 179 188 196 203 203 196 186
5 281 342 322 317 302 116 146 75 325 260 208 156 209 188 176 144 113 137 148 124 109 122 126 133 145 146 147 143 141 138 139 147 153 154 156 161 153 149 142 148 155 156 160
173 310 353 336 293 186 292 144 120 216 300 118 135 2 20 73 192 145 148 138 110 108 113 115 120 127 129 129 128 131 134 136 139 138 136 132 129 131 140 148 151 152 162 177
177 185 324 327 11 353 109 179 218 276 308 3 65 82 24 26 16 159 140 118 115 116 116 117 119 121 122 123 123 125 129 130 127 124 123 125 129 137 146 153 154 170 194 216
183 312 140 285 318 285 282 312 291 288 125 31 360 41 30 14 25 146 130 120 116 115 118 120 122 125 124 123 125 125 126 123 124 125 128 131 135 140 150 170 191 208 232 245
321 186 289 190 354 119 296 320 328 49 327 92 116 77 62 58 88 140 140 132 129 127 128 127 129 126 125 125 125 125 126 125 126 128 130 135 144 160 183 201 220 249 263 269
297 271 281 310 314 276 298 287 270 296 283 143 248 292 352 46 102 150 148 145 141 142 141 133 128 128 129 130 130 129 125 125 128 134 139 143 150 159 210 247 261 267 267 269
297 289 299 288 290 278 274 294 275 253 279 275 351 297 329 347 9 176 162 154 152 152 149 146 144 142 140 138 136 132 131 135 137 136 135 136 155 197 261 272 274 269 265 272
333 283 306 312 92 336 285 284 280 276 277 270 283 289 24 24 86 156 165 166 168 163 159 157 154 151 154 149 143 141 139 138 141 141 148 142 112 298 279 270 271 266 266 277
291 302 309 300 291 305 206 24 302 296 267 293 270 26 344 43 74 134 163 177 177 174 170 167 165 161 153 151 149 147 146 144 155 161 163 246 291 279 280 278 280 276 283 293
283 294 281 297 308 67 40 336 305 293 314 314 273 319 14 40 84 72 52 191 180 174 169 164 156 151 149 144 139 137 144 159 164 174 288 282 291 301 300 296 294 294 295 296
229 281 282 295 313 11 107 29 12 359 27 354 326 114 105 110 143 83 38 39 150 153 149 150 150 144 140 140 138 137 141 138 153 256 285 298 310 309 312 307 301 297 297 298
194 244 272 275 279 65 36 55 185 216 62 29 333 172 168 205 225 94 68 93 109 122 131 133 134 136 135 131 135 137 134 203 270 295 298 306 309 310 306 305 303 301 301 300
193 213 234 243 270 252 344 290 243 304 30 15 288 177 174 323 31 102 112 109 114 120 124 127 131 129 126 132 137 159 257 297 317 308 302 300 303 305 307 305 304 302 303 301
251 203 207 165 244 153 108 218 332 44 77 309 241 186 166 107 121 123 122 121 123 124 126 126 124 122 122 131 175 258 303 322 310 300 298 305 309 308 305 303 304 303 303 301
248 295 331 236 84 29 306 286 344 303 313 339 259 167 161 145 147 142 136 134 133 133 129 129 128 128 125 130 129 301 322 304 298 304 313 316 313 311 310 308 306 304 306 304
179 222 253 295 158 224 313 313 278 260 243 226 200 164 170 162 155 150 144 142 142 143 142 141 136 139 143 144 276 300 306 316 317 316 322 319 315 318 315 307 303 307 310 309
323 284 241 270 270 250 195 213 328 305 242 201 147 166 168 156 159 153 151 152 152 148 143 143 144 133 136 171 234 350 344 331 313 319 323 322 317 319 314 306 310 311 309 307
219 226 220 240 139 306 295 324 308 281 243 206 168 149 158 163 156 152 150 153 151 146 143 147 127 121 88 103 64 30 28 23 354 333 329 330 325 320 314 318 321 320 313 312
Height
784 786 781 774 772 773 772 769 762 749 745 750 749 749 750 751 752 752 753 755 755 757 762 767 774 779 780 789 796 801 805 808 810 815 818 822 825 828 831 833 835 838 840 842
784 780 769 768 773 776 774 772 764 751 739 746 744 745 738 747 747 746 749 751 751 752 756 762 772 775 780 785 791 797 801 806 808 813 816 820 824 827 830 831 833 836 839 841
785 771 764 768 772 775 771 770 763 758 748 745 740 745 739 744 744 747 745 745 748 752 755 758 763 769 776 782 787 792 798 800 804 809 814 818 822 826 828 830 832 835 837 839
779 767 769 769 769 766 771 756 756 755 762 761 739 750 733 732 741 744 743 745 748 752 757 758 762 768 773 778 785 790 793 796 802 806 810 814 817 821 824 828 831 834 836 837
776 769 769 764 760 756 761 752 754 758 754 744 746 745 720 731 736 734 736 736 745 747 753 756 760 765 771 776 781 785 790 794 798 803 809 813 817 820 823 826 829 832 833 834
775 766 771 762 755 753 747 755 759 759 763 767 734 739 724 729 729 724 727 734 741 745 751 755 759 764 769 775 778 782 787 792 797 802 808 812 815 819 822 825 827 829 830 831
782 771 766 768 759 754 754 753 772 780 782 766 735 746 723 725 728 731 736 737 742 747 752 756 760 765 770 774 777 782 786 792 797 802 807 811 815 818 820 823 825 827 828 829
805 791 773 766 768 758 750 753 767 769 751 740 748 746 725 728 736 740 743 739 747 751 754 758 762 766 770 774 778 782 786 792 797 802 807 810 813 816 819 821 823 825 826 828
804 794 770 765 766 764 761 766 786 791 749 739 737 729 724 735 739 743 744 747 752 755 758 761 765 768 772 776 780 783 788 793 799 803 806 810 813 815 818 820 822 824 825 826
794 799 773 768 762 759 761 766 787 789 763 751 737 739 727 732 734 743 747 748 756 760 762 765 768 771 775 779 783 786 791 795 800 803 807 810 813 815 818 820 822 823 825 826
784 791 786 768 765 765 758 763 759 755 757 751 741 739 734 735 738 741 744 751 757 761 764 767 771 775 779 783 786 790 794 798 802 805 808 811 814 816 818 820 822 824 825 826
778 778 795 781 760 761 762 757 751 757 759 757 751 747 739 740 742 742 749 757 761 765 769 772 775 779 782 786 790 793 797 801 804 807 810 813 815 817 819 821 822 823 823 824
779 773 773 774 766 763 761 756 757 753 753 755 759 749 742 740 745 747 753 760 765 770 773 776 778 781 785 790 793 797 800 803 806 809 811 814 816 818 819 820 821 822 822 823
786 774 774 775 772 775 767 761 759 754 758 754 752 744 735 741 749 753 756 761 765 770 774 777 781 785 789 792 796 799 802 805 807 810 812 814 816 818 819 819 819 820 820 820
786 774 773 766 763 766 766 764 764 764 756 761 751 753 742 742 747 749 754 761 766 771 776 780 784 787 792 795 798 801 804 806 809 811 813 814 816 817 817 817 817 817 817 817
784 775 775 767 765 766 768 762 763 762 760 758 754 754 751 752 751 752 755 762 766 771 777 781 786 789 793 796 799 803 805 808 809 811 813 814 815 815 816 816 815 815 814 814
789 782 775 765 764 763 763 761 762 761 761 758 756 752 752 753 755 755 757 762 765 770 776 781 786 790 794 798 801 803 806 808 810 812 812 813 813 814 814 813 812 812 811 810
787 785 783 770 758 765 761 762 764 764 761 759 757 756 761 761 764 764 766 762 765 770 777 783 788 792 796 800 802 805 807 808 809 810 811 812 812 812 811 810 809 808 807 806
791 786 781 777 766 760 760 761 764 765 759 764 762 763 765 767 764 766 772 772 769 774 780 785 790 794 799 801 804 806 807 808 809 810 810 811 810 810 809 808 807 806 805 803
791 790 784 780 780 774 760 763 763 763 761 763 762 762 764 766 754 762 775 776 778 781 785 789 793 797 800 803 805 806 807 808 809 809 809 809 809 808 808 806 805 804 801 798
781 783 779 775 774 763 759 763 765 761 766 760 762 762 765 761 769 777 780 781 783 786 790 793 796 799 802 805 806 807 808 808 809 809 809 808 808 807 805 804 802 800 798 795
775 777 774 778 779 775 763 764 760 759 760 762 763 764 767 772 778 780 783 786 789 791 794 797 799 802 805 806 807 807 808 808 808 808 807 807 806 805 803 801 799 797 794 791
778 772 771 770 762 764 765 762 761 762 760 761 762 765 767 773 777 781 785 788 792 794 797 800 802 804 806 807 807 807 808 808 807 807 806 805 805 802 800 798 796 794 791 788
776 781 775 771 767 760 761 761 763 762 761 761 763 765 768 771 777 781 786 790 794 797 799 802 803 804 806 807 808 808 808 807 806 805 805 804 802 801 798 796 794 791 788 785
774 778 769 764 755 757 758 760 761 760 762 762 764 765 767 771 777 781 787 791 795 798 801 803 804 805 806 807 808 808 807 806 806 805 803 802 800 798 796 794 791 789 787 784
763 760 760 752 752 755 752 754 757 758 758 760 762 766 769 772 776 781 787 792 796 799 802 804 805 806 806 807 807 807 807 806 805 804 802 801 799 796 794 791 788 786 783 780